Weather History for EGPN - May, 2013

Change the Weather History Date:

Saturday, May 11, 2013

  Actual Average Record
Temperature  
Mean Temperature 50 °F -  
Max Temperature 55 °F 58 °F 64 °F (2006)
Min Temperature 46 °F 48 °F 39 °F (2005)
Degree Days  
Heating Degree Days 14    
Moisture  
Dew Point 46 °F    
Average Humidity 81    
Maximum Humidity 88    
Minimum Humidity 67    
Precipitation  
Precipitation 0.00 in - - ()
Sea Level Pressure  
Sea Level Pressure 29.46 in    
Wind  
Wind Speed 14 mph ()    
Max Wind Speed 22 mph    
Max Gust Speed -    
Visibility 6.1 miles    
Events Rain    
Averages and records for this station are not official NWS values.
T = Trace of Precipitation, MM = Missing Value Source: Averaged Metar Reports

Daily Weather History Graph

Daily Weather History Graph

Search for Another Location

Airport or City:

Trip Planner

Search our weather history database for the weather conditions in past years. The results will help you decide how hot, cold, wet, or windy it might be!

Date:

Astronomy

May. 11, 2013 Rise Set
Actual Time 5:04 AM BST 9:13 PM BST
Civil Twilight 4:15 AM BST 10:03 PM BST
Nautical Twilight 3:00 AM BST 11:19 PM BST
Astronomical Twilight 1:40 AM BST 12:36 AM BST
Moon 5:56 AM BST (5/11) 10:49 PM BST (5/11)
Length of Visible Light 17h 48m
Length of Day
16h 09m
New Moon, 2% of the Moon is Illuminated
May 11
New Moon
May 18
First Quarter
May 25
Full
May 31
Last Quarter
Jun 8
New

Hourly Weather History & Observations

Time (BST) Temp. Windchill Dew Point Humidity Pressure Visibility Wind Dir Wind Speed Gust Speed Precip Events Conditions
7:50 AM 46.4 °F 39.2 °F 42.8 °F 87% 29.47 in 6.2 mi SW 18.4 mph - N/A   Mostly Cloudy
8:20 AM 46.4 °F 39.8 °F 42.8 °F 87% 29.47 in 6.2 mi SW 16.1 mph - N/A   Mostly Cloudy
8:50 AM 48.2 °F - 42.8 °F 82% 29.47 in 6.2 mi SW 17.3 mph - N/A   Mostly Cloudy
9:20 AM 46.4 °F 40.1 °F 42.8 °F 87% 29.47 in 6.2 mi SW 15.0 mph - N/A   Mostly Cloudy
9:50 AM 48.2 °F - 44.6 °F 87% 29.44 in 6.2 mi WSW 15.0 mph - N/A   Mostly Cloudy
10:20 AM 50.0 °F - 46.4 °F 87% 29.44 in 6.2 mi WSW 17.3 mph - N/A   Mostly Cloudy
10:50 AM 51.8 °F - 46.4 °F 82% 29.44 in 6.2 mi WSW 15.0 mph - N/A   Mostly Cloudy
11:20 AM 53.6 °F - 46.4 °F 77% 29.44 in 6.2 mi WSW 13.8 mph - N/A   Scattered Clouds
11:50 AM 53.6 °F - 48.2 °F 82% 29.44 in 6.2 mi SW 15.0 mph - N/A   Scattered Clouds
12:20 PM 53.6 °F - 46.4 °F 77% 29.44 in 6.2 mi SW 15.0 mph - N/A Rain Light Rain
12:50 PM 53.6 °F - 48.2 °F 82% 29.44 in 6.2 mi SW 9.2 mph - N/A Rain Light Rain
1:20 PM 51.8 °F - 48.2 °F 88% 29.44 in 4.3 mi WSW 4.6 mph - N/A Rain Rain
1:50 PM 53.6 °F - 50.0 °F 88% 29.44 in 6.2 mi WSW 13.8 mph - N/A   Mostly Cloudy
2:20 PM 53.6 °F - 46.4 °F 77% 29.44 in 6.2 mi WSW 12.7 mph - N/A   Mostly Cloudy
2:50 PM 55.4 °F - 44.6 °F 67% 29.44 in 6.2 mi WSW 21.9 mph - N/A   Mostly Cloudy
3:20 PM 53.6 °F - 44.6 °F 72% 29.47 in 6.2 mi West 21.9 mph - N/A   Mostly Cloudy
3:50 PM 53.6 °F - 46.4 °F 77% 29.47 in 6.2 mi WSW 20.7 mph - N/A   Mostly Cloudy
4:20 PM 53.6 °F - 46.4 °F 77% 29.47 in 6.2 mi WSW 20.7 mph - N/A   Mostly Cloudy
4:50 PM 53.6 °F - 46.4 °F 77% 29.50 in 6.2 mi WSW 18.4 mph - N/A   Mostly Cloudy
5:20 PM 53.6 °F - 46.4 °F 77% 29.50 in 6.2 mi WSW 19.6 mph - N/A   Mostly Cloudy